Time,TemperatureF,DewpointF,PressureIn,WindDirection,WindDirectionDegrees,WindSpeedMPH,WindSpeedGustMPH,Humidity,HourlyPrecipIn,Conditions,Clouds,dailyrainin,SoftwareType,DateUTC
2013-10-04 01:32:00,64.0,63.0,30.09,WNW,292,0.0,0.0,97,0.00,,,0.06,,2013-10-04 05:32:00,
2013-10-04 01:59:00,64.0,63.0,30.09,WNW,292,0.0,0.0,97,0.00,,,0.06,,2013-10-04 05:59:00,
2013-10-04 02:27:00,65.0,64.0,30.09,WNW,292,0.0,0.0,97,0.00,,,0.06,,2013-10-04 06:27:00,
2013-10-04 02:58:00,65.0,64.0,30.09,WNW,292,0.0,0.0,97,0.00,,,0.06,,2013-10-04 06:58:00,
2013-10-04 03:27:00,64.0,63.0,30.09,WNW,292,0.0,0.0,97,0.00,,,0.06,,2013-10-04 07:27:00,
2013-10-04 03:58:00,64.0,63.0,30.09,WNW,292,0.0,0.0,97,0.00,,,0.06,,2013-10-04 07:58:00,
2013-10-04 04:27:00,63.0,62.0,30.09,WNW,292,0.0,0.0,97,0.00,,,0.06,,2013-10-04 08:27:00,
2013-10-04 04:58:00,63.0,62.0,30.09,WNW,292,0.0,0.0,97,0.00,,,0.06,,2013-10-04 08:58:00,
2013-10-04 05:27:00,63.0,62.0,30.10,WNW,292,0.0,1.0,98,0.00,,,0.06,,2013-10-04 09:27:00,
2013-10-04 06:01:00,63.0,62.0,30.11,WNW,292,0.0,0.0,97,0.00,,,0.06,,2013-10-04 10:01:00,
2013-10-04 06:30:00,63.0,62.0,30.11,WNW,292,0.0,0.0,98,0.00,,,0.06,,2013-10-04 10:30:00,
2013-10-04 07:01:00,63.0,62.0,30.12,WNW,292,0.0,0.0,98,0.00,,,0.06,,2013-10-04 11:01:00,
2013-10-04 07:29:00,63.0,62.0,30.12,WNW,292,0.0,0.0,98,0.00,,,0.06,,2013-10-04 11:29:00,
2013-10-04 08:00:00,63.0,62.0,30.13,WNW,292,0.0,0.0,98,0.00,,,0.06,,2013-10-04 12:00:00,
2013-10-04 08:19:00,63.0,62.0,30.13,WNW,292,0.0,0.0,98,0.00,,,0.06,,2013-10-04 12:19:00,
2013-10-04 08:29:00,63.0,62.0,30.13,WNW,292,0.0,0.0,98,0.00,,,0.06,,2013-10-04 12:29:00,
2013-10-04 08:38:00,63.0,62.0,30.13,WNW,292,0.0,0.0,98,0.00,,,0.06,,2013-10-04 12:38:00,
2013-10-04 13:31:00,77.0,69.0,30.11,ESE,109,3.0,7.0,77,0.00,,,0.06,,2013-10-04 17:31:00,
2013-10-04 14:07:00,-999.0,-99.9,30.10,SSW,205,2.0,7.0,-999,0.00,,,0.06,,2013-10-04 18:07:00,
2013-10-04 14:22:00,78.0,68.0,30.09,WSW,244,4.0,7.0,72,0.00,,,0.06,,2013-10-04 18:22:00,
2013-10-04 14:31:00,79.0,69.0,30.09,ESE,113,2.0,6.0,71,0.00,,,0.06,,2013-10-04 18:31:00,
2013-10-04 14:50:00,80.0,69.0,30.09,South,175,1.0,5.0,70,0.00,,,0.06,,2013-10-04 18:50:00,
2013-10-04 14:56:00,78.0,68.0,30.08,WSW,243,1.0,5.0,72,0.00,,,0.06,,2013-10-04 18:56:00,
2013-10-04 15:12:00,80.0,68.0,30.08,West,260,3.0,8.0,66,0.00,,,0.06,,2013-10-04 19:12:00,
2013-10-04 15:22:00,80.0,68.0,30.08,West,268,4.0,10.0,66,0.00,,,0.06,,2013-10-04 19:22:00,
2013-10-04 15:52:00,81.0,67.0,30.07,SW,220,4.0,7.0,62,0.00,,,0.06,,2013-10-04 19:52:00,
2013-10-04 16:22:00,80.0,68.0,30.06,West,275,2.0,8.0,66,0.00,,,0.06,,2013-10-04 20:22:00,
2013-10-04 16:53:00,79.0,65.0,30.07,West,266,0.0,9.0,63,0.00,,,0.06,,2013-10-04 20:53:00,
2013-10-04 17:22:00,79.0,65.0,30.07,WNW,300,2.0,7.0,62,0.00,,,0.06,,2013-10-04 21:22:00,
2013-10-04 17:54:00,79.0,65.0,30.07,WNW,290,2.0,5.0,63,0.00,,,0.06,,2013-10-04 21:54:00,
2013-10-04 18:23:00,78.0,65.0,30.07,WNW,299,2.0,4.0,65,0.00,,,0.06,,2013-10-04 22:23:00,
2013-10-04 18:52:00,77.0,66.0,30.08,WNW,284,1.0,3.0,68,0.00,,,0.06,,2013-10-04 22:52:00,
2013-10-04 19:22:00,76.0,65.0,30.08,WNW,286,1.0,3.0,70,0.00,,,0.06,,2013-10-04 23:22:00,
2013-10-04 19:53:00,71.0,67.0,30.09,WNW,302,0.0,3.0,87,0.03,,,0.09,,2013-10-04 23:53:00,
2013-10-04 20:12:00,70.0,67.0,30.09,WNW,302,0.0,0.0,91,0.03,,,0.09,,2013-10-05 00:12:00,
2013-10-04 20:22:00,69.0,67.0,30.09,WNW,302,0.0,0.0,93,0.03,,,0.09,,2013-10-05 00:22:00,
2013-10-04 20:42:00,69.0,67.0,30.09,WNW,302,0.0,0.0,94,0.02,,,0.09,,2013-10-05 00:42:00,
2013-10-04 20:53:00,69.0,67.0,30.09,WNW,302,0.0,0.0,94,0.00,,,0.09,,2013-10-05 00:53:00,
2013-10-04 21:22:00,68.0,67.0,30.09,WNW,302,0.0,0.0,95,0.00,,,0.06,,2013-10-05 01:22:00,
2013-10-04 21:43:00,67.0,66.0,30.10,WNW,302,0.0,0.0,95,0.00,,,0.06,,2013-10-05 01:43:00,
2013-10-04 21:52:00,67.0,66.0,30.10,WNW,302,0.0,0.0,95,0.00,,,0.06,,2013-10-05 01:52:00,
2013-10-04 22:22:00,67.0,66.0,30.10,WNW,302,0.0,0.0,96,0.00,,,0.03,,2013-10-05 02:22:00,
2013-10-04 22:52:00,67.0,66.0,30.11,WNW,302,0.0,0.0,96,0.00,,,0.03,,2013-10-05 02:52:00,
2013-10-04 23:23:00,67.0,66.0,30.11,WNW,302,0.0,0.0,96,0.00,,,0.03,,2013-10-05 03:23:00,
2013-10-04 23:55:00,67.0,66.0,30.11,WNW,302,0.0,0.0,96,0.00,,,0.03,,2013-10-05 03:55:00,